Simultaneous Nadir Overpasses (SNOs) Predictions

Prediction of SNOs between NOAA-20 and METOP-B Satellite Orbit:

Table of predicted SNOs for the next 14.0 days since TLE Epoch: 12/16/2020
Index Date (NOAA-20) Time (NOAA-20) Lat,Lon (NOAA-20) SZA (NOAA-20 ) Date (METOP-B) Time (METOP-B) Lat,Lon (METOP-B) SZA (METOP-B ) Distance(km) Time Diff (sec)
1 12/29/2020 15:32:35 -73.45, 117.06 83.22 12/29/2020 15:33:41 -73.42, 119.94 83.38 91.23 66
2 12/29/2020 16:23:17 73.26, -75.20 96.57 12/29/2020 16:24:26 73.17, -73.29 96.39 61.99 69
3 12/29/2020 17:13:59 -73.16, 92.35 83.55 12/29/2020 17:15:09 -73.10, 93.89 83.68 50.08 70
4 12/29/2020 18:04:41 72.96, -99.92 96.24 12/29/2020 18:05:53 72.89, -99.22 96.13 24.14 72
5 12/29/2020 18:55:23 -72.86, 67.61 83.88 12/29/2020 18:56:36 -72.83, 67.97 83.94 12.18 73
6 12/29/2020 19:46:07 72.76,-124.88 96.02 12/29/2020 19:47:17 72.77,-124.82 96.01 2.19 70
7 12/29/2020 20:36:51 -72.76, 42.44 83.99 12/29/2020 20:37:59 -72.76, 42.48 84.01 1.50 68
8 12/29/2020 21:27:37 72.77,-150.26 96.02 12/29/2020 21:28:39 72.75,-150.20 95.99 2.94 62
9 12/29/2020 22:18:20 -72.72, 17.16 84.04 12/29/2020 22:19:21 -72.73, 17.09 84.03 2.95 61
10 12/29/2020 23:09:06 72.72,-175.54 95.97 12/29/2020 23:10:01 72.73,-175.58 95.97 1.57 55
11 12/29/2020 23:59:50 -72.72, -8.22 84.04 12/30/2020 00:00:43 -72.71, -8.29 84.05 2.34 53
12 12/30/2020 00:50:36 72.73, 159.07 95.97 12/30/2020 00:51:23 72.71, 159.03 95.94 2.61 47
13 12/30/2020 01:41:20 -72.73, -33.61 84.04 12/30/2020 01:42:04 -72.74, -33.57 84.03 2.33 44



Historial Predications of SNOs between NOAA-20 and METOP-B
